Powrót do katalogu

STARLINK-38009

AktywnyŁącznośćSSO
NORAD 69678·PAYLOAD·🇺🇸 United States

Wystrzelony Jun 25, 2026 z Vandenberg Space Force Base

Loading…

Następne Przeloty (najbliższe 24 godziny)

TLE

ŚwieżeSource: CelesTrak SupGP

Epoka: Sep 15, 2026, 04:27 UTC

1 69678C 26145B   26258.18590278 -.00050194  00000+0 -15578-2 0  2583
2 69678  97.2852 104.8672 0002241  91.6825 315.2489 15.33469015    19

Śledź STARLINK-38009 w czasie rzeczywistym z AllMySat

Download on the App Store